Wind_Speed
50 51 47 45 40 36 42 31 29 23 23 25 32 46 43 38 34 34 27 30 24 21 14 12 5 6 4 7 4 3 4 6 9 10 13 15 15 17 14 21 23 17 12 21 14 10 9 21 22
47 50 48 48 44 40 40 42 36 35 27 26 32 45 41 35 34 32 29 26 26 20 11 12 8 3 8 6 6 5 4 8 9 13 15 19 16 22 16 20 20 19 19 20 18 13 18 21 22
47 49 46 48 48 47 41 39 40 38 32 31 31 39 37 32 31 30 24 26 21 12 4 12 7 3 8 11 9 8 10 12 12 16 19 22 21 23 15 20 23 18 17 20 16 16 21 22 23
46 48 45 50 53 50 50 42 37 40 37 38 32 26 24 27 26 21 19 21 15 10 9 12 11 14 14 17 13 11 11 12 15 20 21 25 21 12 15 21 24 24 27 32 30 25 25 25 20
41 46 45 50 55 52 49 47 43 36 36 33 29 27 22 24 19 16 16 22 19 18 20 18 18 16 18 18 16 14 15 16 18 20 20 14 9 13 19 21 25 32 33 34 32 28 24 17 11
38 39 38 47 48 53 51 49 46 44 36 32 29 27 22 21 22 24 24 25 24 22 23 26 23 25 23 15 13 14 16 19 19 20 9 11 14 16 17 22 27 32 34 29 24 21 14 5 7
29 30 32 39 39 49 51 51 47 45 42 40 35 28 20 16 18 18 20 22 25 24 21 20 20 16 15 15 13 12 15 16 16 13 10 14 13 19 25 28 31 31 26 27 24 12 1 6 10
21 23 25 32 35 31 41 46 47 47 42 38 37 36 29 22 15 11 11 12 13 14 15 15 16 16 17 17 15 13 9 9 10 11 6 5 18 23 27 28 26 25 28 20 12 4 8 14 18
15 11 20 28 27 28 34 40 45 47 44 41 37 34 35 33 28 23 15 8 4 4 10 15 16 15 14 15 13 6 5 7 7 9 14 23 23 25 28 20 21 26 20 10 7 7 15 24 25
10 3 16 20 19 25 27 31 35 40 43 43 42 39 35 36 36 31 27 21 16 11 8 4 12 14 14 13 11 10 11 8 11 15 15 18 19 22 12 16 22 20 12 9 13 15 23 30 29
6 3 12 12 14 16 17 24 25 32 34 39 42 42 38 38 37 36 37 33 27 23 19 16 4 12 13 12 14 13 10 13 15 14 16 16 16 8 9 15 21 16 13 14 20 24 31 30 28
3 2 1 8 8 11 13 15 20 21 26 28 34 38 38 39 37 39 37 37 37 31 26 23 16 7 6 11 12 12 9 10 12 13 13 8 7 8 12 15 17 21 26 26 29 30 28 30 27
5 7 3 2 3 4 4 8 12 14 21 25 27 29 32 32 37 39 41 39 36 37 36 30 25 19 12 2 5 10 10 10 10 7 5 7 10 11 14 15 17 25 30 33 32 27 24 25 22
9 13 10 3 3 2 4 4 4 7 13 20 19 24 25 22 29 34 41 42 40 37 35 37 32 26 20 16 11 6 3 5 5 5 7 9 12 13 13 16 18 24 31 36 33 27 23 19 19
13 11 11 11 7 4 6 6 4 9 9 15 15 14 17 19 22 28 37 40 41 40 36 33 34 31 26 19 17 15 14 11 10 9 8 10 12 13 14 19 22 23 26 30 32 32 28 22 17
16 15 12 6 6 8 9 8 9 4 12 11 11 7 8 12 14 18 30 35 37 39 36 32 32 32 30 26 19 15 15 14 13 10 8 11 14 14 15 18 20 21 25 27 29 28 28 26 24
19 25 21 18 10 14 10 12 19 9 13 13 10 10 4 5 9 10 17 26 32 37 33 32 29 28 28 27 23 18 13 12 11 11 10 12 14 14 16 17 18 21 24 27 28 28 27 25 24
26 25 27 26 22 18 20 18 16 15 17 16 12 12 8 1 5 4 11 20 24 30 33 27 29 27 24 23 23 21 18 11 10 10 10 14 14 14 15 15 17 20 22 24 23 23 23 21 21
36 32 29 30 33 31 27 30 16 18 13 8 11 14 10 9 9 4 5 12 16 21 28 26 24 26 26 22 20 19 19 18 9 8 9 11 14 14 14 14 15 18 20 19 17 19 21 23 20
41 41 36 37 37 38 38 34 31 30 23 24 20 18 14 8 8 13 20 27 23 19 18 20 20 22 25 25 20 17 16 17 16 10 6 8 12 13 14 13 13 13 11 12 13 15 17 19 21
48 45 45 46 45 42 43 43 40 39 36 33 32 34 30 24 28 31 31 33 32 27 22 17 13 17 21 25 23 16 14 13 15 14 9 4 7 10 12 13 10 9 9 11 11 12 14 15 16
53 54 55 51 51 50 50 50 50 48 45 40 32 34 34 33 32 35 40 43 38 34 30 23 18 15 15 22 21 20 13 10 10 11 12 8 4 4 8 11 9 7 8 9 9 10 10 11 14
59 58 59 58 58 59 59 59 57 55 54 48 36 31 34 32 33 37 24 29 38 41 37 31 26 22 22 16 17 19 17 8 7 7 8 10 5 2 4 5 4 3 3 4 5 5 6 9 11
66 64 67 63 63 65 66 66 66 58 59 56 51 41 38 38 30 22 31 32 26 29 30 32 28 27 28 30 21 17 18 14 7 5 6 6 6 2 3 2 0 1 3 3 4 2 5 7 8
73 72 73 71 72 71 72 71 73 63 60 61 60 56 51 42 36 28 22 29 24 24 27 25 32 37 35 33 33 25 18 18 15 10 9 8 7 6 5 5 4 2 1 1 1 2 1 4 6
73 75 74 75 74 76 80 79 79 75 68 67 67 64 62 59 52 46 47 29 19 11 23 20 35 38 39 38 35 36 27 20 19 17 13 12 12 12 11 9 8 7 5 4 3 3 4 7 9
77 75 76 77 76 77 80 84 83 83 79 73 74 70 67 65 63 59 57 57 60 64 48 50 34 39 40 38 38 41 34 25 21 20 20 19 17 16 17 16 16 15 13 12 11 11 11 12 11
79 77 78 77 80 80 84 85 87 87 84 75 70 71 73 74 72 70 64 64 67 70 72 69 63 62 52 53 47 42 42 38 27 26 24 23 22 22 20 22 21 20 19 19 19 17 17 18 19
75 76 76 75 74 76 83 89 88 88 88 83 74 70 72 72 73 73 69 70 73 77 77 74 69 61 58 54 52 48 47 40 39 35 31 29 28 25 27 25 24 24 25 26 25 23 24 24 23
74 72 69 70 72 72 75 84 86 93 93 83 74 68 67 68 69 70 71 70 71 73 77 77 75 73 68 65 58 56 55 46 50 49 42 35 34 30 29 31 29 29 28 28 31 30 31 33 31
Wind_Direction
53 53 52 53 55 60 65 71 74 95 127 131 145 162 167 169 155 143 144 148 142 137 143 147 133 136 316 26 11 316 341 300 310 338 335 335 345 346 334 337 342 337 333 336 326 334 337 348 345
57 55 54 57 59 60 64 66 78 86 103 120 143 161 170 171 164 145 145 146 150 147 151 177 161 308 310 325 321 280 289 303 306 322 329 338 333 331 334 309 335 340 322 326 328 316 319 333 337
59 60 58 62 63 65 65 71 78 89 88 108 129 157 172 173 169 152 164 154 164 179 308 161 197 282 307 299 275 255 268 292 301 318 325 333 325 329 324 314 331 330 334 333 318 303 319 325 335
67 66 61 63 64 66 67 68 75 88 93 99 111 126 157 167 172 182 191 187 216 237 270 208 233 283 285 290 272 256 251 290 293 321 329 324 326 334 321 325 332 319 318 322 322 313 317 311 323
68 72 61 64 65 67 69 71 73 79 92 94 99 107 130 153 174 194 210 202 227 240 261 263 258 281 291 281 266 254 259 282 299 322 324 337 336 311 302 310 319 317 320 316 312 304 305 314 325
67 67 59 61 66 66 69 71 77 79 82 90 102 112 123 147 174 187 194 214 230 249 264 269 261 274 274 273 263 259 263 292 306 319 308 328 316 313 322 331 329 321 315 311 306 306 309 326 105
54 64 57 58 59 64 65 67 73 77 83 86 93 102 117 138 155 178 203 220 231 242 246 255 257 261 256 259 267 270 281 301 312 319 338 331 274 280 316 332 331 326 324 318 312 306 292 118 128
41 62 43 54 56 57 56 66 68 70 77 82 85 91 96 103 110 134 180 208 223 241 250 252 253 252 252 257 266 270 282 293 313 342 340 311 333 340 340 337 340 335 330 331 333 53 107 127 130
128 49 41 59 60 51 57 66 63 64 70 69 77 82 80 83 85 88 96 118 155 239 260 249 240 245 253 263 261 245 229 239 248 266 290 280 306 329 333 344 350 342 343 359 43 97 123 133 133
22 44 48 54 57 56 52 54 62 57 62 67 70 68 75 76 75 75 71 70 67 51 27 318 238 233 240 250 240 237 230 234 260 265 320 331 333 329 349 358 359 4 5 42 75 112 125 131 135
150 339 61 59 49 46 37 51 59 58 53 58 56 61 66 70 74 70 67 66 56 55 52 46 35 230 231 239 237 240 241 230 279 308 315 324 335 358 17 15 8 35 68 80 99 111 124 128 133
161 320 110 69 59 38 42 45 42 46 51 44 49 49 50 55 66 67 65 59 58 56 55 53 60 82 209 227 225 220 230 266 281 302 316 351 26 50 34 29 25 42 78 82 95 107 121 123 128
241 216 214 143 54 64 8 34 50 46 55 45 36 32 39 47 50 64 59 55 54 51 52 53 54 61 73 167 224 232 246 285 309 328 29 56 60 52 44 41 49 52 72 74 80 86 99 113 112
228 207 215 238 270 289 299 343 27 65 60 33 31 36 33 41 47 54 60 50 47 50 46 46 50 54 63 73 81 82 54 46 65 74 90 67 67 61 61 69 68 68 75 84 85 88 91 98 106
221 219 249 258 240 243 292 310 148 99 64 22 10 37 24 28 46 55 57 51 44 41 43 44 44 46 49 60 74 81 80 79 83 93 83 75 74 84 84 86 80 80 80 82 85 86 85 90 99
221 209 228 245 240 239 259 233 250 11 339 330 350 345 4 4 59 48 59 55 41 32 36 41 41 43 44 45 50 73 77 81 86 89 79 86 94 99 98 89 87 84 85 86 87 86 86 82 80
215 215 225 208 224 220 229 231 232 303 306 310 323 313 291 49 73 57 45 48 41 33 26 31 39 42 43 44 41 45 66 78 88 92 93 97 104 104 94 91 88 88 90 90 89 88 87 86 84
243 223 226 234 236 217 221 228 234 285 291 294 299 290 243 206 142 120 43 44 33 20 20 25 28 32 40 41 43 37 38 58 87 96 103 115 116 111 98 88 89 89 91 90 85 82 82 84 80
253 247 246 252 254 254 254 233 246 263 264 288 288 290 298 289 217 261 340 12 23 19 12 17 20 24 23 34 34 41 36 36 52 87 108 127 123 119 108 96 92 89 93 82 77 72 74 78 73
243 248 251 254 251 260 261 257 240 244 239 245 269 274 289 269 267 266 291 311 326 342 347 6 7 11 15 14 24 27 34 31 36 31 82 125 133 127 115 107 101 92 76 65 69 72 70 55 58
242 245 245 251 250 252 255 260 258 259 260 265 278 288 289 283 289 300 303 303 309 317 322 338 351 354 358 1 2 15 21 23 27 29 28 103 134 138 133 130 128 107 85 70 65 65 69 55 49
244 245 245 245 253 253 256 258 257 259 261 261 269 271 275 288 297 303 305 301 300 303 307 314 325 324 337 341 350 349 9 13 9 17 21 18 74 142 148 142 146 134 110 89 78 77 66 50 39
245 249 248 247 250 254 252 254 253 258 262 264 257 259 265 272 284 290 300 292 300 293 295 299 306 307 311 321 331 338 335 351 351 348 2 9 20 101 143 151 136 114 82 67 62 58 39 33 25
255 254 257 255 255 255 253 253 251 253 260 262 262 254 261 275 268 276 273 297 296 290 282 290 298 299 302 302 306 311 318 318 314 306 317 333 349 331 226 206 93 31 47 54 59 47 40 27 14
257 256 258 260 259 260 262 259 255 250 250 258 259 256 251 235 237 240 246 293 286 290 279 269 286 297 292 289 293 293 296 300 296 288 267 276 282 301 296 265 253 238 259 42 33 59 334 329 345
257 257 258 261 260 260 261 262 261 261 253 252 254 256 258 257 250 240 247 231 220 245 275 292 302 292 288 288 283 287 284 283 283 280 273 262 263 264 266 263 258 254 256 249 249 284 289 305 315
255 256 257 259 260 261 262 263 262 262 259 256 254 257 256 257 257 252 246 242 239 245 248 265 288 269 274 277 277 274 274 275 265 270 269 268 263 259 262 258 256 256 251 252 256 262 266 278 287
253 256 256 258 260 261 262 262 263 262 262 260 255 256 256 257 257 252 250 250 248 249 252 253 253 257 265 271 273 271 270 271 265 261 263 265 268 271 263 257 257 256 261 257 257 258 265 271 277
255 255 257 258 260 261 263 264 264 264 263 263 258 255 257 259 261 264 259 254 254 256 257 255 253 254 259 257 263 269 256 257 274 268 257 257 255 260 269 270 262 260 250 253 256 261 264 268 271
255 259 259 261 260 261 262 264 265 266 265 263 261 259 261 263 263 264 264 261 257 255 256 257 256 255 251 255 257 255 256 252 266 271 265 257 253 252 256 263 265 268 270 264 257 259 259 263 266
Height
10984 10978 10975 10973 10965 10964 10957 10951 10948 10946 10949 10952 10958 10967 10974 10980 10988 10991 10995 10996 10999 11001 11003 11005 11005 11005 11006 11006 11006 11006 11005 11005 11004 11003 11002 11001 10999 10998 10996 10994 10993 10993 10992 10990 10989 10988 10987 10985 10984
10989 10984 10984 10978 10976 10969 10963 10958 10955 10956 10957 10959 10964 10972 10980 10986 10990 10994 10998 10999 11001 11003 11006 11005 11006 11007 11007 11007 11007 11007 11006 11006 11004 11004 11002 11000 10999 10997 10995 10995 10994 10993 10992 10989 10987 10986 10986 10984 10982
10993 10990 10992 10991 10983 10977 10972 10969 10965 10966 10968 10969 10974 10979 10986 10991 10995 10997 11000 11002 11004 11004 11004 11006 11007 11007 11007 11008 11007 11006 11006 11005 11003 11003 11001 11000 10998 10997 10995 10995 10993 10991 10989 10988 10986 10985 10983 10982 10980
10999 10995 11001 10999 10990 10986 10981 10978 10975 10975 10978 10980 10983 10988 10994 10999 11000 11002 11003 11004 11003 11003 11004 11006 11007 11007 11007 11008 11006 11006 11006 11005 11003 11003 11001 11000 10997 10996 10995 10992 10991 10989 10987 10984 10982 10981 10980 10979 10977
11008 11001 11008 11001 10998 10994 10990 10987 10984 10983 10984 10987 10990 10993 10996 11001 11003 11004 11006 11006 11004 11004 11004 11004 11005 11006 11006 11006 11006 11006 11006 11005 11004 11003 11001 11000 10998 10997 10994 10991 10989 10986 10983 10980 10977 10975 10975 10975 10974
11014 11011 11013 11007 11007 11004 11000 10998 10997 10994 10994 10994 10995 10998 11001 11002 11003 11005 11005 11004 11004 11003 11002 11003 11004 11005 11006 11006 11006 11006 11005 11005 11004 11003 11001 10999 10998 10997 10993 10989 10986 10983 10979 10974 10971 10969 10970 10971 10972
11018 11020 11017 11013 11017 11015 11010 11008 11006 11004 11003 11003 11004 11006 11006 11006 11006 11006 11006 11005 11005 11005 11005 11003 11003 11003 11004 11005 11005 11006 11005 11004 11004 11002 11001 10999 10997 10995 10991 10987 10982 10979 10974 10968 10965 10964 10966 10968 10972
11023 11024 11021 11018 11022 11021 11019 11016 11015 11013 11011 11011 11010 11009 11009 11010 11009 11008 11008 11006 11006 11005 11003 11002 11001 11001 11002 11003 11004 11005 11004 11003 11004 11002 11002 11001 10998 10992 10989 10984 10980 10977 10970 10964 10960 10961 10964 10967 10973
11030 11025 11025 11024 11026 11027 11025 11024 11022 11019 11017 11018 11017 11016 11014 11012 11011 11010 11008 11007 11006 11005 11003 11000 10999 10999 11000 11001 11002 11004 11004 11005 11004 11005 11003 11001 10997 10993 10989 10984 10982 10976 10968 10964 10961 10961 10964 10968 10975
11029 11029 11029 11030 11031 11030 11030 11031 11029 11027 11025 11024 11022 11021 11018 11016 11014 11012 11010 11008 11007 11006 11002 10998 10997 10998 11000 11002 11003 11005 11006 11005 11005 11004 11001 10999 10996 10994 10991 10987 10984 10977 10970 10966 10964 10965 10968 10972 10978
11036 11034 11033 11034 11033 11033 11034 11035 11033 11032 11031 11029 11027 11027 11024 11021 11019 11016 11013 11011 11009 11006 11003 11001 10998 10998 10999 11001 11003 11005 11005 11005 11004 11004 11002 11000 10998 10996 10994 10990 10986 10981 10974 10971 10969 10971 10973 10979 10984
11038 11035 11034 11035 11035 11035 11037 11038 11037 11035 11035 11035 11033 11032 11031 11029 11024 11020 11017 11015 11012 11010 11007 11005 11002 11000 11000 11001 11002 11004 11005 11005 11006 11005 11003 11001 11000 10999 10996 10994 10991 10985 10978 10976 10976 10978 10981 10982 10988
11039 11036 11034 11035 11036 11038 11036 11038 11039 11040 11039 11037 11037 11036 11035 11034 11031 11025 11022 11020 11017 11015 11013 11009 11006 11004 11003 11003 11003 11004 11006 11006 11006 11005 11004 11003 11003 11001 10999 10998 10997 10991 10984 10982 10983 10986 10988 10989 10992
11038 11035 11034 11036 11037 11037 11038 11038 11040 11039 11040 11039 11040 11039 11039 11038 11036 11032 11027 11025 11023 11019 11017 11014 11012 11010 11008 11006 11005 11005 11006 11007 11007 11006 11006 11005 11005 11004 11003 11003 11001 10998 10994 10991 10991 10993 10994 10996 10997
11038 11034 11034 11036 11038 11037 11038 11039 11039 11038 11039 11040 11042 11041 11041 11041 11041 11039 11033 11030 11028 11026 11021 11021 11019 11015 11013 11011 11009 11008 11008 11008 11008 11008 11009 11008 11007 11007 11007 11008 11006 11004 11001 10998 10997 10998 10999 11001 11002
11035 11033 11031 11034 11038 11038 11039 11039 11040 11040 11041 11043 11042 11043 11042 11042 11042 11041 11037 11035 11033 11030 11029 11027 11024 11021 11019 11017 11015 11013 11012 11011 11011 11011 11011 11011 11010 11011 11011 11011 11010 11009 11007 11006 11005 11004 11003 11005 11006
11032 11032 11029 11031 11035 11037 11038 11036 11039 11040 11041 11041 11041 11042 11041 11041 11042 11041 11040 11037 11035 11035 11034 11032 11029 11027 11025 11023 11021 11018 11016 11014 11014 11013 11013 11013 11014 11015 11015 11015 11014 11013 11013 11011 11011 11011 11010 11010 11010
11025 11027 11026 11027 11030 11034 11035 11035 11038 11039 11039 11037 11039 11040 11040 11040 11040 11040 11040 11039 11037 11037 11037 11036 11034 11032 11030 11028 11026 11024 11021 11018 11016 11016 11015 11015 11017 11018 11018 11018 11018 11017 11017 11017 11016 11016 11016 11015 11014
11015 11019 11023 11022 11024 11026 11029 11032 11034 11036 11036 11036 11036 11038 11040 11039 11039 11038 11038 11039 11040 11040 11039 11040 11039 11037 11035 11033 11031 11028 11026 11023 11020 11019 11018 11019 11019 11020 11020 11021 11021 11021 11021 11021 11021 11020 11018 11019 11019
11010 11011 11017 11016 11017 11019 11022 11025 11029 11031 11032 11032 11035 11036 11037 11039 11039 11038 11036 11035 11037 11039 11040 11041 11041 11040 11039 11038 11035 11032 11029 11027 11025 11023 11021 11021 11021 11022 11022 11023 11023 11023 11024 11024 11023 11022 11022 11021 11020
11003 11006 11007 11008 11008 11013 11015 11017 11019 11022 11025 11028 11031 11032 11033 11035 11035 11035 11033 11032 11032 11035 11038 11040 11041 11041 11041 11041 11039 11036 11033 11031 11029 11027 11025 11023 11023 11023 11023 11023 11024 11025 11025 11025 11025 11024 11023 11023 11022
10994 10995 10995 11000 11002 11003 11005 11007 11009 11013 11018 11024 11028 11029 11030 11029 11029 11028 11028 11026 11026 11028 11029 11033 11036 11038 11041 11041 11041 11038 11035 11034 11032 11030 11028 11026 11024 11024 11024 11025 11025 11025 11026 11026 11026 11025 11025 11024 11023
10981 10982 10986 10991 10992 10991 10993 10994 10999 11006 11009 11016 11024 11022 11025 11026 11025 11023 11024 11020 11022 11019 11022 11024 11028 11031 11034 11038 11039 11038 11036 11033 11032 11032 11030 11029 11027 11026 11025 11026 11026 11026 11026 11026 11026 11026 11025 11025 11024
10969 10973 10969 10977 10979 10977 10978 10982 10986 11001 11000 11003 11010 11017 11020 11021 11021 11018 11015 11018 11012 11013 11016 11017 11020 11023 11028 11031 11035 11036 11035 11034 11031 11030 11030 11030 11029 11028 11027 11026 11026 11026 11026 11026 11025 11025 11025 11025 11024
10951 10957 10956 10961 10961 10963 10962 10964 10964 10985 10992 10990 10992 10998 11005 11010 11011 11015 11012 11010 11008 11010 11006 11008 11011 11016 11020 11024 11028 11032 11033 11032 11030 11029 11028 11028 11028 11028 11028 11027 11026 11026 11025 11025 11025 11025 11025 11025 11024
10937 10938 10945 10943 10947 10944 10939 10943 10946 10959 10974 10979 10979 10983 10986 10991 10999 11006 11005 11009 11005 11007 10998 10998 11006 11008 11012 11017 11021 11023 11026 11028 11027 11026 11026 11025 11026 11026 11026 11026 11026 11025 11025 11024 11024 11024 11024 11023 11022
10918 10927 10927 10926 10930 10929 10927 10921 10928 10930 10944 10959 10966 10972 10976 10977 10982 10991 10996 10998 10999 10998 11000 10995 11005 10999 11005 11009 11012 11014 11019 11021 11021 11021 11021 11022 11021 11023 11023 11023 11023 11023 11023 11022 11022 11022 11022 11021 11020
10903 10908 10908 10914 10911 10914 10906 10905 10902 10907 10917 10936 10949 10952 10956 10957 10960 10969 10981 10985 10985 10984 10986 10991 10998 10996 11000 11001 11002 11006 11008 11012 11014 11015 11015 11015 11017 11018 11019 11018 11018 11019 11020 11020 11019 11019 11019 11018 11017
10888 10889 10893 10898 10900 10898 10883 10878 10887 10890 10893 10903 10921 10936 10939 10942 10947 10951 10963 10968 10967 10964 10966 10972 10981 10986 10988 10992 10992 10995 10994 11001 11003 11007 11008 11009 11010 11011 11012 11013 11013 11013 11014 11014 11015 11016 11015 11013 11013
10867 10876 10883 10882 10884 10881 10870 10860 10857 10855 10860 10880 10903 10924 10929 10931 10933 10935 10936 10940 10943 10944 10944 10947 10956 10965 10974 10972 10979 10982 10983 10983 10989 10994 10998 11001 11002 11004 11004 11005 11007 11007 11007 11008 11007 11008 11009 11008 11008